Flag for Belgium Weather past 2 weeks in Leuven, Belgium

Now
55 °F

Fog.


Feels Like: 55 °F
Forecast: 60 / 69 °F
Wind: 5 mph from East

Location: Brussels National Airport

Current Time: Aug 27, 2014 at 11:46:41 AM

Latest Report: Aug 27, 2014 at 10:50 AM


Visibility: 4 mi

Pressure: 30.01 "Hg

Humidity: 88%

Dew point: 52 °F

Location of LeuvenLocation

Historic Weather in Leuven — Graph

°F

Leuven temperature yesterday

Maximum temperature yesterday: 63 °F (at 1:20 PM)
Minimum temperature yesterday: 55 °F (at 12:20 AM)
Average temperature yesterday: 58 °F

Past Weeks' High & Low Weather Summary

 TemperatureHumidityPressure
High70 °F (Aug 13, 4:20 PM)100% (Aug 16, 12:20 AM)30.15 "Hg (Aug 16, 12:20 AM)
Low46 °F (Aug 20, 5:50 AM)49% (Aug 20, 1:50 PM)29.59 "Hg (Aug 26, 2:50 AM)
Average58 °F78%29.90 "Hg
* Reported Aug 12 10:20 AM — Aug 27 10:20 AM, Leuven, Weather by CustomWeather, © 2014

Note: Actual official high and low records may vary slightly from our data, if they occured in-between our weather recording intervals... More about our weather records

Advertising

Leuven weather history for previous 24 hours

 ConditionsComfort  
Time TempWeatherWind HumidityBarometerVisibility
10:20 AM
Aug 27
55 °FFog.3 mph88%30.01 "Hg4 mi
9:50 AM52 °FFog.5 mph94%29.98 "Hg1 mi
9:20 AM52 °FFog.5 mph88%29.98 "Hg1 mi
8:50 AM50 °FFog.3 mph94%29.98 "Hg1 mi
8:20 AM50 °FFog.2 mph94%29.98 "Hg1 mi
7:50 AM50 °FCool.3 mph94%29.95 "Hg1 mi
7:20 AM50 °FFog.1 mph94%29.95 "Hg1 mi
6:50 AM50 °FLight fog.1 mph94%29.95 "Hg1 mi
6:20 AM50 °FCool.1 mph94%29.92 "Hg1 mi
5:50 AM50 °FCool.1 mph94%29.92 "Hg1 mi
5:20 AM52 °FPassing clouds.1 mph88%29.92 "Hg1 mi
4:50 AM52 °FFog.3 mph88%29.92 "Hg2 mi
4:20 AM52 °FFog.3 mph94%29.92 "Hg2 mi
3:50 AM52 °FFog.5 mph94%29.89 "Hg1 mi
3:20 AM54 °FFog.5 mph94%29.89 "Hg2 mi
2:50 AM54 °FFog.5 mph94%29.89 "Hg1 mi
2:20 AM55 °FFog.6 mph94%29.86 "Hg1 mi
1:50 AM55 °FFog.5 mph94%29.86 "Hg1 mi
1:20 AM55 °FFog.5 mph94%29.86 "Hg1 mi
12:50 AM57 °FFog.3 mph88%29.83 "Hg2 mi
12:20 AM57 °FPartly cloudy.5 mph88%29.83 "Hg2 mi
11:50 PM
Aug 26
57 °FPartly cloudy.5 mph88%29.83 "Hg1 mi
11:20 PM57 °FPartly cloudy.6 mph88%29.83 "Hg1 mi
10:50 PM57 °FPassing clouds.7 mph88%29.80 "Hg2 mi
10:20 PM57 °FPassing clouds.7 mph88%29.80 "Hg2 mi
9:50 PM57 °FPartly cloudy.6 mph88%29.80 "Hg3 mi
9:20 PM57 °FDrizzle. Broken clouds.6 mph94%29.77 "Hg4 mi
8:50 PM57 °FDrizzle. Broken clouds.6 mph94%29.77 "HgN/A
8:20 PM57 °FDrizzle. Broken clouds.7 mph94%29.74 "HgN/A
7:50 PM59 °FPartly sunny.6 mph88%29.74 "HgN/A
7:20 PM59 °FPartly sunny.7 mph88%29.74 "HgN/A
6:50 PM59 °FPartly sunny.6 mph94%29.71 "HgN/A
6:20 PM59 °FSprinkles. Partly sunny.8 mph94%29.71 "HgN/A
5:50 PM59 °FSprinkles. Partly sunny.7 mph94%29.71 "HgN/A
5:20 PM59 °FPartly sunny.7 mph94%29.71 "HgN/A
4:50 PM59 °FSprinkles. Partly sunny.5 mph94%29.68 "Hg5 mi
4:20 PM59 °FSprinkles. Broken clouds.7 mph94%29.68 "Hg3 mi
3:50 PM61 °FBroken clouds.6 mph88%29.68 "HgN/A
3:20 PM61 °FPartly sunny.6 mph94%29.68 "HgN/A
2:50 PM63 °FPartly sunny.3 mph88%29.68 "HgN/A
2:20 PM61 °FRain showers. Partly sunny.6 mph94%29.68 "Hg3 mi
1:50 PM61 °FPartly sunny.9 mph94%29.68 "HgN/A
1:20 PM63 °FPartly sunny.8 mph83%29.68 "HgN/A
12:50 PM61 °FLight rain. Partly sunny.7 mph94%29.68 "HgN/A
12:20 PM61 °FLight rain. Partly sunny.7 mph94%29.68 "HgN/A
11:50 AM61 °FLight rain. Partly sunny.7 mph83%29.68 "Hg5 mi
11:20 AM59 °FLight rain. Partly sunny.7 mph94%29.65 "Hg5 mi
Weather by CustomWeather, © 2014

See weather overviewHow to use our weather pages